Temperature
22 23 23 24 24 23 23 22 22 22 21 20 20 19 19 19 18 18 18 17 17 17 17 17 17 17 17 17 17 17 16 16 16 16 15 15 15 15 15 15 16 16 16
22 23 24 24 24 24 23 23 22 22 22 21 20 20 19 19 18 18 17 17 17 17 17 17 17 17 17 17 17 16 16 16 16 16 15 15 15 15 15 15 15 15 16
20 22 23 24 24 24 24 23 23 22 22 21 20 19 19 19 18 18 18 17 17 17 17 17 17 17 17 16 16 16 16 16 16 15 15 15 15 15 15 15 15 15 15
19 21 22 23 23 23 23 22 22 22 21 20 19 19 19 19 19 18 17 17 17 17 17 17 17 16 16 16 16 16 16 16 15 15 15 15 15 15 15 15 15 15 15
17 19 20 21 21 21 20 20 20 20 19 18 18 18 18 18 18 17 17 17 17 17 17 17 17 16 16 16 16 16 15 15 15 15 15 14 15 15 15 15 15 15 15
16 17 18 18 18 18 18 18 19 18 17 17 17 17 18 18 17 17 17 17 17 17 17 17 16 16 16 16 15 15 15 15 15 15 15 15 15 15 15 14 15 15 15
15 16 16 16 17 16 17 17 17 16 16 16 17 17 17 17 17 17 17 17 17 17 16 16 16 16 15 15 15 15 15 15 15 15 15 15 15 15 15 14 14 15 15
14 16 16 16 16 16 16 16 16 15 15 16 16 16 17 17 17 17 17 17 16 16 16 16 15 15 15 15 14 14 14 14 14 14 14 14 14 14 14 15 14 14 14
14 15 15 15 15 15 15 14 14 15 15 15 16 16 17 17 17 17 17 17 16 16 16 16 15 15 15 15 14 14 14 14 14 14 14 14 14 13 14 14 14 14 14
14 14 14 14 14 14 14 14 14 15 15 16 16 17 17 17 17 17 17 16 16 16 16 16 15 15 14 14 14 14 14 14 14 13 13 13 13 13 13 14 14 14 13
14 14 14 14 14 14 14 14 15 15 15 16 16 17 17 17 17 17 17 17 16 16 16 15 15 15 14 14 14 14 14 14 14 14 13 13 13 13 13 13 13 13 13
14 15 15 15 15 15 15 15 16 16 16 16 17 17 17 17 17 17 17 17 17 17 16 16 15 15 14 14 14 14 14 14 14 13 13 13 13 13 13 13 13 13 13
14 15 15 16 16 16 16 16 16 16 17 17 17 17 17 17 17 17 17 17 17 17 16 16 16 15 15 14 14 14 14 14 14 13 13 13 12 12 12 13 13 13 13
13 14 15 16 16 16 17 17 17 17 17 17 17 17 17 17 17 17 17 17 17 17 16 16 16 15 15 15 14 14 14 14 14 13 13 13 13 12 12 12 12 13 13
12 13 14 15 15 16 17 17 17 17 17 17 17 17 17 17 17 17 17 17 17 17 16 16 16 16 15 15 15 14 14 14 14 14 13 13 13 13 12 12 12 12 12
12 13 13 14 14 15 16 16 16 16 16 16 16 16 16 16 16 16 16 16 16 16 16 16 16 16 15 15 15 15 14 14 14 14 14 13 13 13 13 12 12 12 12
12 13 13 13 13 13 14 14 14 15 15 15 15 15 15 16 16 16 16 16 16 16 15 15 15 15 15 15 15 15 14 14 14 14 13 13 13 13 13 13 12 12 12
12 13 13 13 12 12 13 13 13 13 14 14 14 14 14 14 14 14 14 14 14 14 14 14 14 14 14 15 15 15 14 14 14 14 13 13 13 13 13 13 13 13 13
13 13 13 13 13 12 12 13 13 12 12 12 12 12 12 13 13 13 13 13 13 13 13 13 13 13 13 14 14 14 14 14 14 14 13 13 13 13 13 13 13 13 13
13 13 13 13 13 13 12 13 12 12 12 12 12 11 11 11 11 11 11 11 12 12 12 12 12 12 12 13 13 13 13 14 14 13 13 13 13 13 13 13 13 13 13
14 14 14 14 13 13 13 13 12 12 12 12 11 11 11 11 11 11 11 11 11 11 11 11 11 11 11 12 12 12 13 13 13 13 13 13 13 13 13 13 13 13 13
14 14 14 14 14 14 14 13 13 12 12 12 12 11 11 11 11 11 11 11 11 11 11 11 11 11 11 11 11 11 11 12 12 12 12 12 12 12 12 12 13 13 13
15 15 15 15 14 14 14 14 13 13 12 12 12 11 11 11 11 11 11 11 11 11 11 11 11 11 11 11 11 11 11 11 11 11 11 12 12 12 12 12 12 12 12
15 15 15 15 15 15 15 14 14 13 13 12 12 11 11 11 11 11 11 11 11 10 10 10 10 10 11 11 11 11 11 11 11 11 11 11 11 11 12 12 12 12 12
15 15 15 16 16 15 15 15 14 14 13 13 12 11 11 11 11 11 11 10 10 10 10 10 10 10 10 10 10 10 10 10 10 10 10 11 11 11 11 11 11 11 11
15 15 16 16 16 16 16 15 15 14 14 13 12 12 11 11 11 11 11 10 10 10 10 10 10 10 10 10 10 10 10 10 10 10 10 10 10 10 10 10 10 10 10
Wind_Speed
10 10 14 16 13 12 12 14 13 12 11 7 6 5 4 4 4 4 6 9 10 11 8 4 5 6 6 7 7 4 4 2 3 3 2 3 2 1 1 1 1 1 2
11 10 10 14 18 17 15 14 13 12 12 8 5 3 3 3 2 2 4 7 9 9 8 7 6 7 6 6 7 5 4 3 3 4 3 1 3 2 1 1 1 2 2
13 12 9 11 14 16 15 12 12 9 7 6 4 4 4 3 2 2 3 4 7 8 7 7 6 7 7 7 8 7 7 5 3 2 4 4 4 2 3 2 1 2 2
13 11 7 5 6 8 9 11 11 11 8 6 3 2 3 4 5 3 3 4 6 7 8 7 6 7 6 7 8 7 5 6 5 3 2 2 3 3 1 3 2 2 4
14 10 6 6 7 9 11 12 13 13 10 5 2 3 3 2 2 2 4 4 4 5 6 7 6 7 6 7 8 8 8 6 6 5 4 3 1 2 2 2 3 2 3
14 11 10 10 11 11 11 11 14 13 9 3 2 5 5 5 4 4 4 3 3 3 5 5 5 5 5 5 6 7 8 8 6 5 5 5 4 4 4 3 3 3 3
14 12 11 9 9 9 10 11 14 11 5 1 3 6 7 7 6 4 4 3 3 3 4 4 4 4 4 4 4 5 6 7 7 7 7 5 5 4 5 4 3 3 3
12 9 9 8 7 8 10 11 12 8 3 1 4 4 5 4 3 3 3 3 3 3 4 5 5 4 4 4 4 4 5 5 7 8 7 5 5 4 5 5 4 2 2
13 9 8 9 9 9 10 9 7 4 2 4 4 3 3 3 3 3 3 3 3 3 4 4 4 3 3 4 4 4 4 4 6 6 7 6 5 5 5 5 5 5 3
14 10 8 7 8 8 8 6 2 2 4 4 4 3 3 3 3 3 4 4 3 3 4 4 4 4 3 3 3 3 3 4 4 4 6 6 5 5 5 5 6 6 6
12 8 6 5 6 6 4 2 2 3 3 3 2 2 2 3 4 4 4 4 4 5 5 5 5 5 5 4 3 3 2 3 3 4 5 6 6 6 6 6 6 7 7
8 5 3 3 3 2 2 3 3 2 2 3 3 2 2 3 3 3 3 4 5 5 6 5 5 5 5 5 5 4 3 3 3 4 4 5 5 7 6 7 8 8 8
9 4 2 3 3 3 4 4 3 3 2 2 3 2 1 2 2 2 3 3 4 4 5 5 6 6 6 6 6 5 5 4 4 4 4 5 5 6 6 7 8 8 8
12 9 6 5 5 5 4 3 3 3 3 3 2 2 2 2 2 2 2 3 4 4 5 5 6 6 6 6 6 6 6 5 5 5 5 4 5 6 6 6 7 7 7
15 14 11 9 8 8 7 5 3 2 1 1 2 2 1 1 2 2 2 2 3 4 5 5 5 5 5 6 7 7 7 6 5 4 4 4 5 6 5 4 4 5 5
14 13 13 12 12 12 11 11 10 8 7 7 7 6 5 4 3 3 3 2 2 2 3 5 5 5 5 7 9 8 7 7 6 5 4 4 4 5 6 6 6 6 5
11 12 11 10 10 10 10 10 9 9 10 10 9 9 8 8 7 6 6 6 4 3 3 3 3 5 6 8 8 9 7 7 7 6 5 4 4 5 4 5 6 7 9
10 10 9 9 8 8 8 8 8 9 9 9 9 9 9 9 8 8 8 8 6 6 6 6 5 4 5 7 7 7 5 5 6 6 6 6 5 4 5 5 5 6 6
6 6 6 6 7 8 7 8 8 8 8 8 8 8 8 8 8 9 8 7 7 7 7 6 7 6 7 9 7 3 2 2 3 4 5 6 5 6 7 6 6 7 7
5 5 5 6 6 7 6 7 7 7 7 7 7 7 7 7 8 8 7 6 6 7 7 8 8 8 8 13 11 5 2 1 1 1 2 5 6 6 6 7 7 7 7
4 3 4 4 5 5 5 6 6 6 5 5 5 6 6 6 6 6 6 6 7 7 8 7 7 8 10 12 15 11 4 1 0 1 1 2 5 6 6 6 7 8 5
5 4 3 5 5 4 3 5 5 5 3 3 5 5 6 6 5 6 6 7 7 8 8 8 8 7 8 10 12 13 10 5 1 2 2 3 5 6 7 4 7 8 5
6 4 3 5 5 4 2 3 4 3 2 2 3 4 5 5 5 5 6 5 6 6 6 7 7 8 7 8 13 12 11 9 4 3 5 7 7 5 3 3 5 5 5
6 5 5 5 6 5 4 4 4 2 1 2 3 3 4 4 4 4 4 4 5 5 6 6 7 7 7 7 7 7 6 6 4 3 4 4 2 2 2 3 3 3 4
6 5 5 6 7 7 6 5 3 2 2 2 2 3 3 4 3 3 3 3 2 3 4 4 5 6 7 9 12 8 6 5 4 4 2 1 1 2 2 3 3 3 4
7 7 7 7 8 7 7 6 4 4 4 3 2 1 2 3 3 2 2 1 1 4 5 6 6 5 7 12 11 11 11 10 6 1 1 1 1 2 2 3 3 3 4
Wind_Direction
282 259 228 214 209 205 195 191 186 176 168 164 167 173 192 193 198 200 196 193 190 185 179 176 176 174 182 183 170 153 156 144 134 104 47 359 20 51 21 18 319 319 29
302 290 251 220 208 204 198 190 187 178 176 177 162 151 146 162 177 177 184 191 187 183 181 175 176 177 174 167 165 154 154 160 158 138 122 348 331 313 329 348 244 257 285
308 300 279 236 214 203 192 183 172 159 154 135 115 87 81 81 124 181 188 184 181 179 175 174 173 178 174 178 178 172 166 172 183 175 153 163 215 272 306 290 258 241 248
325 310 295 257 213 187 155 140 133 117 102 102 130 172 186 193 205 198 187 169 173 176 178 175 176 177 177 180 186 183 175 165 177 189 190 156 151 153 284 303 285 249 237
347 353 18 61 81 95 105 111 111 103 95 96 143 214 223 202 182 179 181 172 167 171 170 171 174 180 184 186 183 183 189 188 184 177 166 155 131 128 161 260 286 288 253
4 21 40 56 67 77 88 97 97 91 92 100 182 211 207 192 182 195 188 171 151 160 172 173 178 185 188 193 193 194 197 202 199 195 187 175 168 176 170 201 244 258 269
11 25 36 48 60 73 83 86 86 83 80 116 223 217 205 192 192 193 189 165 159 171 179 168 175 183 198 203 196 198 205 203 206 208 212 209 194 160 159 166 195 242 275
4 23 40 46 56 70 83 85 87 86 74 269 253 223 197 180 184 188 181 180 180 173 165 172 177 184 189 197 198 207 214 208 213 216 212 211 210 185 170 166 166 203 264
350 3 30 50 55 65 73 76 82 93 183 226 229 207 192 174 170 175 185 187 182 174 166 166 165 173 184 196 196 216 222 213 216 219 214 210 207 204 194 176 174 184 226
342 353 12 37 53 60 68 65 58 261 239 223 208 198 199 180 171 173 189 196 192 176 162 157 156 162 179 195 201 223 226 216 217 210 213 214 209 209 206 202 197 199 208
325 340 357 13 48 53 48 24 279 250 225 201 177 148 145 162 172 179 185 185 183 180 182 179 173 176 184 190 196 223 222 220 224 217 217 224 213 213 211 207 207 210 208
328 339 337 340 25 24 338 293 278 256 212 175 143 131 137 155 165 176 188 189 191 190 192 188 189 191 187 187 194 213 212 214 226 230 230 236 226 220 215 214 217 216 211
9 24 11 340 330 302 274 255 231 190 178 156 143 150 174 197 206 211 217 209 207 202 200 197 204 207 196 191 197 202 210 218 226 227 228 236 228 229 222 220 220 218 216
28 34 32 17 352 337 319 281 229 192 179 179 171 175 205 230 245 239 231 228 227 223 221 220 221 220 209 197 195 196 204 213 226 232 236 237 229 233 230 227 224 216 212
29 32 32 29 26 25 27 38 48 44 55 75 29 352 344 342 296 280 280 263 243 234 225 228 229 228 223 214 200 197 199 202 213 228 239 244 241 240 233 226 219 210 210
18 22 25 26 28 31 34 40 44 44 53 53 39 25 23 24 6 343 343 335 311 280 241 237 236 237 241 240 221 199 194 194 197 207 218 235 245 248 243 242 227 207 201
8 12 16 19 21 23 29 35 32 38 49 50 42 37 35 35 27 26 30 21 10 3 342 313 283 272 275 277 266 227 195 194 196 197 198 208 218 227 234 250 249 233 225
359 4 6 11 12 17 25 31 32 36 42 41 36 31 32 32 27 31 30 21 18 20 14 6 353 331 322 315 294 275 217 200 197 196 197 202 218 219 216 224 238 241 239
344 351 357 2 7 12 13 31 29 28 32 30 27 24 27 31 29 28 22 17 22 25 22 19 18 11 355 357 344 314 178 185 193 193 197 203 220 236 222 212 233 247 250
341 354 354 0 5 355 3 31 23 23 19 12 15 19 26 32 29 23 19 16 22 23 24 27 23 22 13 11 15 38 92 118 146 185 211 222 232 249 236 207 216 238 248
326 356 4 348 331 336 6 21 13 6 351 4 21 24 24 32 32 32 27 24 27 29 25 20 17 20 18 15 20 28 35 34 320 278 263 258 263 275 272 222 210 226 224
330 345 347 329 319 329 2 4 346 328 345 20 31 25 21 25 29 35 32 31 31 32 23 14 11 10 9 12 12 17 18 14 354 318 311 297 296 294 291 249 223 224 198
325 328 331 322 322 321 310 318 309 316 338 12 18 13 16 21 22 31 30 31 32 31 20 13 8 2 360 3 11 12 10 11 5 330 317 311 303 300 291 258 215 174 155
328 325 329 322 314 312 296 267 282 280 268 312 336 356 8 7 13 24 28 35 31 25 17 10 4 359 358 0 359 357 355 355 354 338 328 341 22 64 84 80 103 124 141
324 328 318 300 292 296 291 276 256 203 223 270 312 346 358 355 357 18 25 22 23 7 357 353 352 353 353 345 344 347 342 331 312 314 310 332 81 89 84 81 87 94 102
323 327 322 304 293 289 282 276 242 201 205 241 280 340 354 351 360 10 14 358 313 329 340 344 347 334 330 333 345 351 352 348 336 341 13 21 68 98 103 104 92 85 91
Height
1483 1483 1484 1486 1489 1493 1495 1498 1501 1503 1506 1509 1512 1514 1517 1520 1522 1524 1526 1527 1528 1530 1531 1533 1535 1537 1539 1541 1543 1544 1545 1547 1548 1549 1549 1550 1550 1550 1550 1551 1552 1552 1552
1479 1478 1478 1479 1481 1485 1488 1492 1496 1500 1503 1506 1510 1513 1515 1518 1521 1523 1524 1525 1526 1527 1529 1530 1532 1534 1536 1537 1539 1541 1542 1544 1545 1546 1547 1548 1549 1548 1548 1549 1550 1551 1552
1477 1475 1474 1473 1475 1477 1481 1485 1490 1496 1501 1505 1509 1512 1514 1517 1519 1520 1521 1523 1524 1525 1527 1528 1529 1531 1532 1534 1535 1537 1539 1541 1542 1544 1545 1545 1545 1546 1546 1547 1548 1549 1550
1474 1472 1470 1470 1471 1472 1476 1480 1484 1491 1498 1503 1508 1511 1513 1514 1516 1518 1519 1520 1522 1523 1524 1525 1526 1527 1528 1530 1531 1533 1534 1536 1538 1539 1540 1542 1543 1544 1544 1545 1546 1547 1548
1474 1471 1469 1468 1468 1470 1472 1475 1480 1486 1494 1501 1505 1509 1511 1512 1514 1515 1516 1517 1519 1521 1522 1522 1523 1524 1525 1526 1527 1528 1530 1531 1533 1534 1535 1537 1538 1540 1542 1543 1544 1545 1545
1476 1473 1471 1470 1469 1470 1472 1474 1477 1483 1489 1497 1503 1507 1509 1511 1512 1513 1513 1515 1516 1518 1519 1520 1521 1521 1521 1522 1523 1524 1525 1527 1528 1529 1530 1531 1533 1535 1537 1539 1541 1543 1544
1480 1476 1475 1474 1474 1474 1474 1475 1476 1482 1488 1496 1502 1505 1507 1509 1510 1511 1512 1513 1515 1516 1517 1518 1518 1518 1518 1519 1519 1520 1521 1522 1523 1524 1525 1527 1529 1531 1533 1536 1538 1540 1542
1483 1479 1477 1477 1477 1476 1475 1476 1477 1483 1489 1496 1500 1503 1506 1507 1508 1510 1511 1512 1514 1515 1516 1516 1516 1516 1516 1516 1516 1516 1517 1517 1518 1519 1521 1522 1524 1527 1530 1532 1535 1537 1538
1485 1482 1479 1477 1477 1477 1476 1478 1482 1488 1493 1497 1500 1502 1504 1506 1508 1509 1511 1512 1512 1513 1514 1514 1514 1514 1513 1513 1513 1513 1513 1513 1514 1516 1517 1518 1520 1523 1526 1528 1530 1533 1534
1487 1484 1482 1480 1480 1480 1481 1484 1489 1493 1496 1498 1499 1501 1503 1505 1507 1509 1510 1510 1511 1511 1511 1512 1511 1511 1511 1511 1511 1511 1511 1511 1511 1512 1513 1515 1517 1519 1521 1523 1525 1527 1530
1489 1487 1485 1484 1484 1485 1487 1490 1493 1496 1496 1498 1500 1502 1503 1505 1507 1507 1507 1508 1508 1508 1509 1509 1509 1509 1509 1509 1509 1509 1509 1509 1509 1509 1510 1511 1512 1514 1516 1518 1520 1522 1524
1490 1489 1488 1488 1489 1490 1491 1493 1494 1495 1496 1497 1500 1501 1503 1504 1505 1505 1505 1505 1505 1506 1506 1507 1507 1507 1507 1508 1508 1508 1508 1507 1507 1507 1506 1507 1508 1509 1511 1513 1514 1517 1519
1491 1491 1491 1491 1490 1490 1491 1492 1493 1495 1496 1498 1499 1500 1502 1503 1503 1503 1503 1503 1503 1503 1503 1504 1505 1506 1506 1506 1506 1506 1506 1506 1505 1505 1504 1504 1504 1505 1507 1508 1510 1512 1514
1494 1493 1492 1492 1492 1491 1491 1490 1491 1493 1495 1496 1497 1498 1499 1500 1501 1501 1501 1501 1501 1501 1501 1501 1502 1503 1503 1503 1504 1504 1504 1504 1504 1503 1502 1502 1502 1503 1503 1504 1506 1507 1509
1498 1497 1496 1494 1493 1492 1491 1490 1491 1492 1493 1494 1495 1496 1496 1497 1498 1498 1498 1498 1498 1498 1498 1498 1498 1499 1500 1500 1501 1502 1502 1503 1503 1502 1502 1501 1501 1501 1501 1502 1503 1504 1505
1505 1502 1500 1498 1496 1495 1493 1493 1493 1493 1493 1494 1494 1494 1494 1494 1494 1495 1495 1495 1494 1494 1494 1495 1495 1495 1496 1497 1498 1499 1499 1500 1500 1501 1501 1500 1500 1501 1501 1501 1502 1502 1503
1511 1508 1506 1504 1502 1500 1499 1497 1496 1495 1494 1493 1493 1492 1492 1492 1491 1491 1491 1491 1491 1491 1491 1491 1491 1491 1492 1493 1494 1495 1496 1497 1498 1498 1499 1499 1500 1500 1500 1500 1501 1501 1502
1517 1515 1512 1510 1508 1506 1504 1502 1500 1498 1496 1495 1493 1492 1491 1491 1491 1490 1489 1489 1488 1487 1487 1487 1487 1487 1488 1489 1490 1491 1492 1493 1494 1495 1496 1497 1498 1498 1499 1499 1499 1500 1500
1522 1520 1518 1515 1513 1511 1509 1507 1504 1501 1499 1497 1496 1494 1493 1492 1491 1490 1489 1488 1487 1486 1485 1485 1485 1485 1485 1485 1486 1487 1488 1489 1490 1491 1492 1494 1495 1496 1497 1497 1498 1498 1499
1527 1525 1523 1520 1518 1515 1513 1511 1508 1505 1503 1501 1499 1498 1496 1495 1493 1492 1491 1489 1488 1487 1486 1485 1484 1483 1483 1483 1483 1483 1484 1485 1486 1487 1488 1489 1491 1493 1494 1495 1496 1496 1497
1529 1528 1526 1524 1521 1519 1517 1514 1512 1510 1507 1505 1503 1501 1499 1498 1496 1495 1493 1492 1491 1489 1487 1486 1484 1483 1482 1482 1481 1481 1481 1482 1483 1483 1484 1485 1487 1488 1490 1491 1493 1494 1494
1530 1529 1528 1526 1524 1522 1519 1517 1515 1513 1511 1509 1507 1505 1503 1501 1500 1498 1496 1494 1492 1491 1489 1487 1485 1484 1482 1481 1480 1480 1480 1480 1480 1481 1481 1482 1483 1484 1486 1487 1489 1490 1491
1531 1529 1528 1527 1525 1524 1522 1520 1518 1515 1514 1512 1510 1508 1506 1504 1502 1500 1498 1496 1494 1492 1489 1487 1486 1484 1483 1481 1480 1479 1479 1478 1478 1478 1478 1478 1479 1480 1481 1483 1485 1487 1488
1530 1529 1528 1527 1526 1525 1523 1521 1519 1517 1515 1513 1511 1510 1508 1506 1504 1502 1500 1497 1495 1493 1491 1489 1487 1485 1484 1481 1480 1478 1477 1476 1475 1475 1475 1475 1475 1476 1478 1480 1482 1483 1485
1530 1529 1528 1526 1525 1524 1523 1522 1520 1517 1516 1514 1512 1510 1509 1507 1505 1502 1500 1498 1496 1494 1493 1491 1489 1487 1485 1483 1481 1478 1476 1474 1473 1472 1472 1472 1473 1474 1475 1477 1479 1481 1483
1530 1528 1527 1525 1524 1523 1522 1521 1519 1517 1516 1514 1512 1511 1509 1507 1505 1503 1501 1499 1497 1496 1494 1493 1491 1489 1487 1485 1482 1480 1476 1473 1471 1470 1471 1472 1473 1474 1475 1477 1479 1481 1483